|
DELTA 2 R/B (1) - Orbit
|
Unspecified;
07:30:21
| Home | Info | Passes |
|
View from above orbital plane
|
View from above satellite
|
Ground track
|
The orbit data is extracted from the following two-line orbital elements,
1 27665U 03005C 13169.10328572 -.00000128 00000-0 -16898-4 0 7809
2 27665 039.5770 342.9449 0008142 151.5314 308.3892 14.28056268542128
| Epoch (UTC): | 18 June 2013 02:28:43 |
| Eccentricity: | 0.0008142 |
| inclination: | 39.5770° |
| perigee height: | 792 km |
| apogee height: | 804 km |
| right ascension of ascending node: | 342.9449° |
| argument of perigee: | 151.5314° |
| revolutions per day: | 14.28056268 |
| mean anomaly at epoch: | 308.3892° |
| orbit number at epoch: | 54212 |
The dashed part of the orbit path shows where the satellite is in the earth's shadow,
|
|